Weather History for LGEL - March, 2013

Change the Weather History Date:

Friday, March 8, 2013

  Actual Average Record
Temperature  
Mean Temperature 55 °F -  
Max Temperature 62 °F 61 °F 71 °F (2002)
Min Temperature 48 °F 45 °F 32 °F (2011)
Degree Days  
Heating Degree Days 10    
Growing Degree Days 5 (Base 50)    
Moisture  
Dew Point 51 °F    
Average Humidity 88    
Maximum Humidity 100    
Minimum Humidity 63    
Precipitation  
Precipitation 0.00 in - - ()
Sea Level Pressure  
Sea Level Pressure 29.87 in    
Wind  
Wind Speed 1 mph ()    
Max Wind Speed 5 mph    
Max Gust Speed -    
Visibility 6.1 miles    
Events      
Averages and records for this station are not official NWS values.
T = Trace of Precipitation, MM = Missing Value Source: Averaged Metar Reports

Daily Weather History Graph

Daily Weather History Graph

Search for Another Location

Airport or City:

Trip Planner

Search our weather history database for the weather conditions in past years. The results will help you decide how hot, cold, wet, or windy it might be!

Date:

Astronomy

Mar. 08, 2013 Rise Set
Actual Time 6:47 AM EET 6:26 PM EET
Civil Twilight 6:21 AM EET 6:52 PM EET
Nautical Twilight 5:50 AM EET 7:22 PM EET
Astronomical Twilight 5:20 AM EET 7:53 PM EET
Moon 4:15 AM EET (3/8) 3:02 PM EET (3/8)
Length of Visible Light 12h 31m
Length of Day
11h 38m
Waning Crescent, 14% of the Moon is Illuminated
Mar 8
Waning Crescent
Mar 11
New
Mar 19
First Quarter
Mar 27
Full
Apr 3
Last Quarter

Hourly Weather History & Observations

Time (EET) Temp. Dew Point Humidity Pressure Visibility Wind Dir Wind Speed Gust Speed Precip Events Conditions
12:50 AM 51.8 °F 50.0 °F 94% 29.92 in 6.2 mi Calm Calm - N/A   Overcast
1:50 AM 50.0 °F 50.0 °F 100% 29.89 in 6.2 mi Calm Calm - N/A   Overcast
2:50 AM 50.0 °F 50.0 °F 100% 29.89 in 6.2 mi Calm Calm - N/A   Overcast
3:50 AM 50.0 °F 50.0 °F 100% 29.89 in 6.2 mi Calm Calm - N/A   Overcast
4:50 AM 50.0 °F 50.0 °F 100% 29.86 in 6.2 mi Calm Calm - N/A   Overcast
5:20 AM 50.0 °F 50.0 °F 100% 29.86 in 6.2 mi Calm Calm - N/A   Overcast
5:50 AM 50.0 °F 50.0 °F 100% 29.86 in 6.2 mi Calm Calm - N/A   Overcast
6:20 AM 50.0 °F 50.0 °F 100% 29.86 in 6.2 mi Calm Calm - N/A   Overcast
6:50 AM 48.2 °F 48.2 °F 100% 29.89 in 6.2 mi Calm Calm - N/A   Mostly Cloudy
7:20 AM 50.0 °F 50.0 °F 100% 29.89 in 6.2 mi Calm Calm - N/A   Mostly Cloudy
7:50 AM 50.0 °F 50.0 °F 100% 29.86 in 6.2 mi Calm Calm - N/A   Mostly Cloudy
8:20 AM 51.8 °F 51.8 °F 100% 29.86 in 6.2 mi Calm Calm - N/A   Mostly Cloudy
8:50 AM 51.8 °F 51.8 °F 100% 29.86 in 6.2 mi Calm Calm - N/A   Mostly Cloudy
9:20 AM 53.6 °F 53.6 °F 100% 29.86 in 6.2 mi Calm Calm - N/A   Mostly Cloudy
9:50 AM 53.6 °F 53.6 °F 100% 29.89 in 6.2 mi Calm Calm - N/A   Overcast
10:20 AM 53.6 °F 53.6 °F 100% 29.89 in 6.2 mi Calm Calm - N/A   Overcast
10:50 AM 53.6 °F 53.6 °F 100% 29.89 in 5.0 mi Calm Calm - N/A   Overcast
11:20 AM 55.4 °F 53.6 °F 94% 29.89 in 5.0 mi Calm Calm - N/A   Overcast
11:50 AM 55.4 °F 53.6 °F 94% 29.89 in 6.2 mi Calm Calm - N/A   Mostly Cloudy
12:20 PM 59.0 °F 51.8 °F 77% 29.89 in 6.2 mi Calm Calm - N/A   Mostly Cloudy
12:50 PM 60.8 °F 50.0 °F 68% 29.86 in 6.2 mi Variable 3.5 mph - N/A   Mostly Cloudy
1:20 PM 60.8 °F 48.2 °F 63% 29.86 in 6.2 mi Variable 3.5 mph - N/A   Mostly Cloudy
1:50 PM 60.8 °F 50.0 °F 68% 29.86 in 6.2 mi Calm Calm - N/A   Scattered Clouds
2:20 PM 62.6 °F 50.0 °F 63% 29.86 in 6.2 mi SSW 4.6 mph - N/A   Scattered Clouds
2:50 PM 60.8 °F 50.0 °F 68% 29.86 in 6.2 mi Variable 3.5 mph - N/A   Scattered Clouds
3:20 PM 60.8 °F 48.2 °F 63% 29.86 in 6.2 mi Calm Calm - N/A   Scattered Clouds
3:50 PM 60.8 °F 50.0 °F 68% 29.83 in 6.2 mi Variable 3.5 mph - N/A   Scattered Clouds
4:20 PM 60.8 °F 50.0 °F 68% 29.83 in 6.2 mi South 4.6 mph - N/A   Scattered Clouds
4:50 PM 59.0 °F 50.0 °F 72% 29.83 in 6.2 mi South 4.6 mph - N/A   Scattered Clouds
5:20 PM 59.0 °F 50.0 °F 72% 29.83 in 6.2 mi South 4.6 mph - N/A   Scattered Clouds
6:20 PM 57.2 °F 51.8 °F 82% 29.83 in 6.2 mi Variable 3.5 mph - N/A   Scattered Clouds
6:50 PM 57.2 °F 51.8 °F 82% 29.86 in 6.2 mi Calm Calm - N/A   Partly Cloudy
7:20 PM 57.2 °F 51.8 °F 82% 29.86 in 6.2 mi Calm Calm - N/A   Partly Cloudy
7:50 PM 57.2 °F 51.8 °F 82% 29.86 in 6.2 mi Calm Calm - N/A   Partly Cloudy
8:20 PM 55.4 °F 51.8 °F 88% 29.86 in 6.2 mi Calm Calm - N/A   Partly Cloudy
8:50 PM 53.6 °F 51.8 °F 94% 29.86 in 6.2 mi Calm Calm - N/A   Partly Cloudy
9:20 PM 53.6 °F 50.0 °F 88% 29.86 in 6.2 mi Calm Calm - N/A   Partly Cloudy
9:50 PM 53.6 °F 50.0 °F 88% 29.86 in 6.2 mi Calm Calm - N/A   Partly Cloudy
10:20 PM 51.8 °F 48.2 °F 88% 29.86 in 6.2 mi North 4.6 mph - N/A   Partly Cloudy
10:50 PM 51.8 °F 48.2 °F 88% 29.86 in 6.2 mi Calm Calm - N/A   Partly Cloudy
11:50 PM 50.0 °F 48.2 °F 94% 29.86 in 6.2 mi Calm Calm - N/A   Partly Cloudy